EW5474 Weather Reports


Display with metric or nautical units.
time (UTC)temp
F
wind
direction
speed
MPH
gust
MPH
rain 1hr
in
rain 24hr
in
rain mn
in
humidity
%
barometer
mb
20260904171032 94 343 3.0 9.0 0.00 0.00 0.00 59 1012.9
20260904170514 94 5 4.0 9.0 0.00 0.00 0.00 60 1012.9
20260904170008 94 318 3.0 9.0 0.00 0.00 0.00 60 1013.0
20260904165732 95 286 2.0 6.0 0.00 0.00 0.00 59 1013.1
20260904164955 95 325 1.0 6.0 0.00 0.00 0.00 59 1013.2
20260904164450 96 72 1.0 4.0 0.00 0.00 0.00 61 1013.2
20260904163944 95 331 0.0 2.0 0.00 0.00 0.00 60 1013.3
20260904163438 95 107 1.0 4.0 0.00 0.00 0.00 64 1013.3
20260904162932 94 130 1.0 4.0 0.00 0.00 0.00 61 1013.3
20260904162439 94 197 1.0 5.0 0.00 0.00 0.00 62 1013.4
20260904161920 94 198 1.0 6.0 0.00 0.00 0.00 62 1013.4
20260904161414 94 315 1.0 6.0 0.00 0.00 0.00 69 1013.4
20260904161139 94 343 1.0 4.0 0.00 0.00 0.00 62 1013.5
20260904160402 94 111 1.0 4.0 0.00 0.00 0.00 66 1013.5
20260904155855 94 50 1.0 5.0 0.00 0.00 0.00 63 1013.5
20260904155621 94 13 1.0 5.0 0.00 0.00 0.00 64 1013.5
20260904154844 93 73 0.0 2.0 0.00 0.00 0.00 65 1013.4
20260904154337 92 215 1.0 4.0 0.00 0.00 0.00 66 1013.3
20260904153831 91 223 1.0 4.0 0.00 0.00 0.00 66 1013.3
20260904153557 91 213 1.0 3.0 0.00 0.00 0.00 67 1013.4
20260904152819 91 213 1.0 3.0 0.00 0.00 0.00 67 1013.4
20260904152328 91 202 0.0 4.0 0.00 0.00 0.00 67 1013.4
20260904151808 91 73 1.0 4.0 0.00 0.00 0.00 68 1013.4
20260904151533 91 269 1.0 4.0 0.00 0.00 0.00 72 1013.4
20260904150756 91 186 1.0 4.0 0.00 0.00 0.00 69 1013.5
20260904150249 90 246 1.0 2.0 0.00 0.00 0.00 69 1013.4
20260904145744 90 205 0.0 3.0 0.00 0.00 0.00 71 1013.4
20260904145238 89 214 0.0 3.0 0.00 0.00 0.00 69 1013.4
20260904144732 89 221 1.0 4.0 0.00 0.00 0.00 71 1013.4
20260904144226 89 227 1.0 4.0 0.00 0.00 0.00 71 1013.4
20260904143720 89 134 1.0 4.0 0.00 0.00 0.00 73 1013.4
20260904143214 88 9 1.0 4.0 0.00 0.00 0.00 73 1013.4
20260904142938 87 215 1.0 2.0 0.00 0.00 0.00 73 1013.4
20260904142204 87 258 1.0 4.0 0.00 0.00 0.00 73 1013.4
20260904142158 87 275 1.0 4.0 0.00 0.00 0.00 73 1013.4
20260904141150 87 342 1.0 2.0 0.00 0.00 0.00 73 1013.3
20260904140914 87 240 1.0 2.0 0.00 0.00 0.00 74 1013.3
20260904140138 87 142 1.0 3.0 0.00 0.00 0.00 75 1013.3
20260904135632 86 244 1.0 3.0 0.00 0.00 0.00 76 1013.3
20260904135126 86 194 1.0 2.0 0.00 0.00 0.00 76 1013.3
20260904134619 86 197 1.0 2.0 0.00 0.00 0.00 76 1013.3
20260904134114 85 355 1.0 2.0 0.00 0.00 0.00 77 1013.4
20260904133608 84 173 1.0 4.0 0.00 0.00 0.00 77 1013.4
20260904133102 84 50 0.0 4.0 0.00 0.00 0.00 78 1013.4
20260904132556 83 237 0.0 2.0 0.00 0.00 0.00 79 1013.4
20260904132050 83 241 1.0 3.0 0.00 0.00 0.00 79 1013.5
20260904131544 83 33 1.0 4.0 0.00 0.00 0.00 79 1013.6
20260904131038 82 223 1.0 4.0 0.00 0.00 0.00 79 1013.6
20260904130546 82 296 1.0 2.0 0.00 0.00 0.00 80 1013.6
20260904130527 82 207 1.0 3.0 0.00 0.00 0.00 80 1013.6
20260904125520 82 34 1.0 3.0 0.00 0.00 0.00 80 1013.7
20260904125245 81 243 1.0 2.0 0.00 0.00 0.00 81 1013.7
20260904124508 81 254 1.0 3.0 0.00 0.00 0.00 81 1013.8
20260904124001 81 201 1.0 3.0 0.00 0.00 0.00 81 1013.8
20260904123456 80 269 0.0 2.0 0.00 0.00 0.00 82 1013.8
20260904122950 80 267 0.0 3.0 0.00 0.00 0.00 83 1013.8
20260904122444 80 239 0.0 3.0 0.00 0.00 0.00 83 1013.8
20260904121938 80 205 1.0 2.0 0.00 0.00 0.00 83 1013.9
20260904121432 79 209 1.0 2.0 0.00 0.00 0.00 83 1013.9
20260904120926 79 223 0.0 2.0 0.00 0.00 0.00 84 1013.9
20260904120419 79 223 0.0 2.0 0.00 0.00 0.00 84 1013.8
20260904115914 79 188 0.0 4.0 0.00 0.00 0.00 84 1013.8
20260904115407 79 182 0.0 4.0 0.00 0.00 0.00 85 1013.9
20260904114902 78 204 0.0 2.0 0.00 0.00 0.00 85 1013.8
20260904114355 78 189 0.0 1.0 0.00 0.00 0.00 85 1013.9
20260904113850 78 226 0.0 1.0 0.00 0.00 0.00 85 1013.7
20260904113343 78 195 0.0 1.0 0.00 0.00 0.00 85 1013.7
20260904112838 78 195 0.0 1.0 0.00 0.00 0.00 85 1013.8
20260904112332 78 195 0.0 1.0 0.00 0.00 0.00 84 1013.8
20260904111826 78 195 0.0 1.0 0.00 0.00 0.00 84 1013.9
20260904111320 78 142 0.0 0.0 0.00 0.00 0.00 84 1014.0
20260904111045 78 142 0.0 2.0 0.00 0.00 0.00 84 1013.9
20260904110308 78 142 0.0 2.0 0.00 0.00 0.00 84 1013.8
20260904105802 78 142 0.0 1.0 0.00 0.00 0.00 84 1013.9
20260904105256 78 142 0.0 0.0 0.00 0.00 0.00 84 1013.8
20260904104750 78 142 0.0 0.0 0.00 0.00 0.00 83 1013.9
20260904104244 78 142 0.0 1.0 0.00 0.00 0.00 83 1013.9
20260904104009 78 142 0.0 1.0 0.00 0.00 0.00 83 1013.8
20260904103232 78 142 0.0 0.0 0.00 0.00 0.00 83 1013.9
20260904102725 78 142 0.0 1.0 0.00 0.00 0.00 83 1013.8
20260904102220 78 142 0.0 1.0 0.00 0.00 0.00 82 1013.9
20260904101713 79 142 0.0 0.0 0.00 0.00 0.00 83 1014.0
20260904101207 79 142 0.0 1.0 0.00 0.00 0.00 83 1014.0
20260904100702 79 142 0.0 1.0 0.00 0.00 0.00 83 1014.0
20260904100155 79 142 0.0 1.0 0.00 0.00 0.00 83 1014.1
20260904095650 79 142 0.0 1.0 0.00 0.00 0.00 83 1014.0
20260904095144 79 103 0.0 1.0 0.00 0.00 0.00 83 1014.3
20260904094637 79 168 0.0 2.0 0.00 0.00 0.00 83 1014.0
20260904094132 79 168 0.0 3.0 0.00 0.00 0.00 82 1014.2
20260904093625 79 15 0.0 3.0 0.00 0.00 0.00 82 1014.4
20260904093120 80 163 0.0 0.0 0.00 0.00 0.00 82 1014.3
20260904092614 80 163 0.0 3.0 0.00 0.00 0.00 82 1014.3
20260904092108 80 163 1.0 3.0 0.00 0.00 0.00 82 1014.4
20260904091602 80 19 1.0 2.0 0.00 0.00 0.00 82 1014.4
20260904091056 80 30 0.0 2.0 0.00 0.00 0.00 82 1014.4
20260904090549 80 13 1.0 2.0 0.00 0.00 0.00 82 1014.3
20260904090044 80 12 0.0 2.0 0.00 0.00 0.00 81 1014.5
20260904085538 80 22 0.0 2.0 0.00 0.00 0.00 81 1014.1
20260904085032 80 22 0.0 2.0 0.00 0.00 0.00 81 1014.3
20260904084526 80 5 0.0 2.0 0.00 0.00 0.00 81 1014.1
20260904084020 80 5 1.0 2.0 0.00 0.00 0.00 81 1014.2
20260904083758 80 202 1.0 3.0 0.00 0.00 0.00 81 1013.9
20260904083011 80 176 0.0 3.0 0.00 0.00 0.00 81 1014.1
20260904083005 80 9 0.0 0.0 0.00 0.00 0.00 81 1014.3
20260904081955 80 202 1.0 9.0 0.00 0.00 0.00 81 1014.0
20260904081452 80 65 1.0 9.0 0.00 0.00 0.00 81 1014.7
20260904081445 80 38 2.0 11.0 0.00 0.00 0.00 82 1014.2
20260904080450 80 202 3.0 11.0 0.00 0.00 0.00 82 1014.2
20260904080203 80 45 1.0 9.0 0.00 0.00 0.00 81 1014.9
20260904075426 80 23 0.0 0.0 0.00 0.00 0.00 81 1013.7
20260904074920 80 28 0.0 0.0 0.00 0.00 0.00 81 1013.5
20260904074414 80 277 0.0 0.0 0.00 0.00 0.00 81 1013.4
20260904073908 80 84 0.0 0.0 0.00 0.00 0.00 81 1013.4
20260904073402 80 355 0.0 0.0 0.00 0.00 0.00 81 1013.4
20260904072855 80 355 0.0 0.0 0.00 0.00 0.00 81 1013.3
20260904072350 80 355 0.0 0.0 0.00 0.00 0.00 81 1013.3
20260904071843 80 355 0.0 0.0 0.00 0.00 0.00 81 1013.2
20260904071338 80 355 0.0 0.0 0.00 0.00 0.00 81 1013.2
20260904070832 80 355 0.0 0.0 0.00 0.00 0.00 81 1013.3
20260904070326 80 208 0.0 0.0 0.00 0.00 0.00 81 1013.3
20260904065820 81 142 0.0 0.0 0.00 0.00 0.00 81 1013.3
20260904065545 81 197 0.0 0.0 0.00 0.00 0.00 81 1013.2
20260904064808 81 207 0.0 0.0 0.00 0.00 0.00 81 1013.2
20260904064302 81 207 0.0 0.0 0.00 0.00 0.00 81 1013.3
20260904063756 81 211 0.0 0.0 0.00 0.00 0.00 81 1013.2
20260904063521 81 211 0.0 0.0 0.00 0.00 0.00 81 1013.3
20260904062744 81 194 0.0 3.0 0.00 0.00 0.00 81 1013.4
20260904062238 81 210 0.0 3.0 0.00 0.00 0.00 81 1013.4
20260904061732 81 325 0.0 0.0 0.00 0.00 0.00 81 1013.4
20260904061226 81 304 0.0 0.0 0.00 0.00 0.00 81 1013.3
20260904060720 81 194 0.0 0.0 0.00 0.00 0.00 81 1013.4
20260904060214 81 205 0.0 0.0 0.00 0.00 0.00 81 1013.4
20260904055708 81 209 0.0 3.0 0.00 0.00 0.00 81 1013.6
20260904055201 81 214 0.0 3.0 0.00 0.00 0.00 81 1013.7
20260904054656 81 211 0.0 0.0 0.00 0.00 0.00 81 1013.8
20260904054150 82 211 0.0 2.0 0.00 0.00 0.00 81 1013.9
20260904053915 82 210 0.0 2.0 0.00 0.00 0.00 81 1014.0
20260904053138 82 199 0.0 1.0 0.00 0.00 0.00 81 1014.1
20260904052632 82 236 0.0 0.0 0.00 0.00 0.00 81 1014.4
20260904052125 82 270 0.0 0.0 0.00 0.00 0.00 81 1014.5
20260904051620 82 267 0.0 0.0 0.00 0.00 0.00 81 1014.5
20260904051114 82 221 0.0 0.0 0.00 0.00 0.00 81 1014.4
20260904050608 82 200 0.0 0.0 0.00 0.00 0.00 81 1014.3
20260904050108 82 211 0.0 1.0 0.00 0.00 0.00 81 1014.3
20260904045827 82 234 0.0 1.0 0.00 0.00 0.00 81 1014.3
20260904045050 82 213 0.0 0.0 0.00 0.00 0.00 81 1014.4
20260904044544 82 203 0.0 1.0 0.00 0.00 0.00 81 1014.4
20260904044037 82 200 0.0 1.0 0.00 0.00 0.00 81 1014.5
20260904043532 82 202 0.0 0.0 0.00 0.00 0.00 81 1014.6
20260904043025 82 226 0.0 2.0 0.00 0.00 0.00 81 1014.6
20260904042520 82 198 0.0 2.0 0.00 0.00 0.00 81 1014.5
20260904042014 82 197 0.0 0.0 0.00 0.00 0.00 81 1014.5
20260904041508 82 237 0.0 1.0 0.00 0.00 0.00 82 1014.5
20260904041001 82 202 0.0 3.0 0.00 0.00 0.00 82 1014.5
20260904040456 83 196 1.0 3.0 0.00 0.00 0.00 82 1014.4
20260904035949 83 209 1.0 2.0 0.00 0.00 0.00 82 1014.4
20260904035444 83 192 1.0 4.0 0.00 0.00 0.00 82 1014.5
20260904034938 83 215 1.0 4.0 0.00 0.00 0.00 82 1014.5
20260904034431 83 194 1.0 5.0 0.00 0.00 0.00 83 1014.5
20260904033926 83 158 1.0 5.0 0.00 0.00 0.00 83 1014.5
20260904033420 83 198 1.0 2.0 0.00 0.00 0.00 83 1014.6
20260904032914 83 202 0.0 2.0 0.00 0.00 0.00 83 1014.5
20260904032408 83 194 0.0 2.0 0.00 0.00 0.00 83 1014.6
20260904031902 83 194 0.0 2.0 0.00 0.00 0.00 84 1014.6
20260904031356 83 180 0.0 2.0 0.00 0.00 0.00 84 1014.6
20260904030850 83 200 0.0 3.0 0.00 0.00 0.00 84 1014.5
20260904030614 83 176 0.0 3.0 0.00 0.00 0.00 84 1014.6
20260904025838 83 180 0.0 0.0 0.00 0.00 0.00 84 1014.6
20260904025332 83 180 0.0 0.0 0.00 0.00 0.00 84 1014.6
20260904024825 83 180 0.0 1.0 0.00 0.00 0.00 84 1014.6
20260904024320 83 206 0.0 1.0 0.00 0.00 0.00 84 1014.7
20260904023813 83 190 0.0 0.0 0.00 0.00 0.00 83 1014.8
20260904023308 83 178 0.0 0.0 0.00 0.00 0.00 83 1014.8
20260904022802 83 178 0.0 0.0 0.00 0.00 0.00 83 1014.8
20260904022527 83 178 0.0 0.0 0.00 0.00 0.00 83 1015.0
20260904021750 83 172 0.0 0.0 0.00 0.00 0.00 82 1015.0
20260904021243 83 172 0.0 0.0 0.00 0.00 0.00 82 1015.0
20260904020738 83 175 0.0 0.0 0.00 0.00 0.00 82 1015.0
20260904020232 83 160 0.0 0.0 0.00 0.00 0.00 82 1015.1
20260904015726 83 146 0.0 0.0 0.00 0.00 0.00 82 1015.2
20260904015220 84 146 0.0 0.0 0.00 0.00 0.00 82 1015.3
20260904014713 84 146 0.0 0.0 0.00 0.00 0.00 82 1015.3
20260904014207 84 146 0.0 0.0 0.00 0.00 0.00 82 1015.2
20260904013702 84 146 0.0 0.0 0.00 0.00 0.00 82 1015.2
20260904013156 84 146 0.0 0.0 0.00 0.00 0.00 82 1015.2
20260904012921 84 146 0.0 0.0 0.00 0.00 0.00 82 1015.1
20260904012415 84 171 0.0 0.0 0.00 0.00 0.00 82 1015.0
20260904011638 84 178 0.0 0.0 0.00 0.00 0.00 82 1015.0
20260904011403 84 178 0.0 0.0 0.00 0.00 0.00 82 1015.1
20260904010625 84 181 0.0 0.0 0.00 0.00 0.00 81 1015.0
20260904010120 84 198 0.0 0.0 0.00 0.00 0.00 81 1015.1
20260904005614 84 198 0.0 0.0 0.00 0.00 0.00 81 1015.0
20260904005108 85 198 0.0 0.0 0.00 0.00 0.00 80 1015.0
20260904004602 85 198 0.0 0.0 0.00 0.00 0.00 80 1014.9
20260904004326 85 198 0.0 0.0 0.00 0.00 0.00 80 1014.7
20260904003550 85 198 0.0 0.0 0.00 0.00 0.00 80 1014.6
20260904003044 85 198 0.0 0.0 0.00 0.00 0.00 80 1014.5
20260904002538 85 198 0.0 0.0 0.00 0.00 0.00 80 1014.5
20260904002306 85 198 0.0 0.0 0.00 0.00 0.00 80 1014.4
20260904001756 85 212 0.0 0.0 0.00 0.00 0.00 79 1014.3
20260904001020 85 212 0.0 0.0 0.00 0.00 0.00 79 1014.1
20260904000514 85 212 0.0 0.0 0.00 0.00 0.00 79 1014.1
20260904000008 85 169 0.0 0.0 0.00 0.00 0.00 79 1014.0
20260903235501 85 169 0.0 0.0 0.00 0.00 0.00 79 1013.9
20260903234956 85 169 0.0 0.0 0.00 0.00 0.00 79 1014.0
20260903234450 86 169 0.0 0.0 0.00 0.00 0.00 79 1013.9
20260903233944 86 173 0.0 0.0 0.00 0.00 0.00 79 1013.8
20260903233438 86 168 0.0 0.0 0.00 0.00 0.00 79 1013.7
20260903232932 86 192 0.0 1.0 0.00 0.00 0.00 79 1013.8
20260903232426 86 192 0.0 2.0 0.00 0.00 0.00 78 1013.8
20260903231919 86 167 0.0 2.0 0.00 0.00 0.00 78 1013.7
20260903231414 86 148 0.0 1.0 0.00 0.00 0.00 78 1013.8
20260903230907 86 84 0.0 4.0 0.00 0.00 0.00 78 1013.6
20260903230402 87 163 0.0 4.0 0.00 0.00 0.00 78 1013.6
20260903225856 87 130 0.0 2.0 0.00 0.00 0.00 78 1013.5
20260903225349 87 140 0.0 4.0 0.00 0.00 0.00 78 1013.5
20260903224844 87 185 1.0 4.0 0.00 0.00 0.00 78 1013.6
20260903224338 87 187 0.0 4.0 0.00 0.00 0.00 78 1013.6
20260903223832 87 168 1.0 4.0 0.00 0.00 0.00 78 1013.6
20260903223326 87 151 1.0 5.0 0.00 0.00 0.00 77 1013.6
20260903222820 87 199 1.0 5.0 0.00 0.00 0.00 77 1013.5
20260903222314 87 173 1.0 5.0 0.00 0.00 0.00 77 1013.6
20260903222041 88 200 1.0 5.0 0.00 0.00 0.00 76 1013.6
20260903221301 88 151 1.0 5.0 0.00 0.00 0.00 76 1013.7
20260903220755 88 165 1.0 6.0 0.00 0.00 0.00 76 1013.6
20260903220249 88 100 1.0 6.0 0.00 0.00 0.00 75 1013.6
20260903220015 89 22 1.0 4.0 0.00 0.00 0.00 75 1013.7
20260903215238 89 161 1.0 5.0 0.00 0.00 0.00 75 1013.7
20260903214732 88 222 1.0 5.0 0.00 0.00 0.00 76 1013.7
20260903214226 89 37 1.0 4.0 0.00 0.00 0.00 75 1013.7
20260903213720 89 192 1.0 4.0 0.00 0.00 0.00 76 1013.7
20260903213214 89 275 1.0 3.0 0.00 0.00 0.00 75 1013.6
20260903212708 89 47 1.0 3.0 0.00 0.00 0.00 75 1013.7
20260903212433 90 49 0.0 4.0 0.00 0.00 0.00 75 1013.7
20260903211656 90 12 1.0 4.0 0.00 0.00 0.00 74 1013.7
20260903211150 90 221 1.0 3.0 0.00 0.00 0.00 75 1013.6
20260903210644 91 63 1.0 4.0 0.00 0.00 0.00 74 1013.6
20260903210138 91 63 1.0 4.0 0.00 0.00 0.00 74 1013.7
20260903205631 91 28 1.0 3.0 0.00 0.00 0.00 74 1013.7
20260903205126 91 119 1.0 3.0 0.00 0.00 0.00 72 1013.6
20260903204619 91 84 0.0 2.0 0.00 0.00 0.00 74 1013.6
20260903204345 91 142 1.0 3.0 0.00 0.00 0.00 74 1013.7
20260903203608 91 57 1.0 4.0 0.00 0.00 0.00 74 1013.7
20260903203102 91 223 1.0 4.0 0.00 0.00 0.00 74 1013.8
20260903202609 91 32 1.0 6.0 0.00 0.00 0.00 74 1013.8
20260903202053 91 170 1.0 6.0 0.00 0.00 0.00 73 1013.8
20260903202046 90 10 1.0 4.0 0.00 0.00 0.00 75 1013.9
20260903201038 91 210 1.0 5.0 0.00 0.00 0.00 73 1014.0
20260903200532 91 175 1.0 4.0 0.00 0.00 0.00 73 1014.2
20260903200027 91 57 0.0 4.0 0.00 0.00 0.00 72 1014.1
20260903195520 91 168 1.0 4.0 0.00 0.00 0.00 73 1014.3
20260903195014 91 172 1.0 4.0 0.00 0.00 0.00 72 1014.4
20260903194508 92 85 1.0 5.0 0.00 0.00 0.00 73 1014.5
20260903194002 91 175 1.0 5.0 0.00 0.00 0.00 72 1014.5
20260903193456 91 85 1.0 4.0 0.00 0.00 0.00 74 1014.7
20260903192950 91 158 1.0 4.0 0.00 0.00 0.00 73 1014.7
20260903192444 91 25 1.0 4.0 0.00 0.00 0.00 74 1014.7
20260903191938 91 30 1.0 5.0 0.00 0.00 0.00 74 1014.8
20260903191434 90 293 2.0 5.0 0.00 0.00 0.00 74 1014.8
20260903191428 90 145 1.0 4.0 0.00 0.00 0.00 74 1015.0
20260903190419 90 86 1.0 5.0 0.00 0.00 0.00 74 1015.1
20260903185913 90 28 1.0 5.0 0.00 0.00 0.00 74 1015.1
20260903185408 90 31 1.0 5.0 0.00 0.00 0.00 76 1015.1
20260903184901 89 281 1.0 5.0 0.00 0.00 0.00 76 1015.2
20260903184356 89 15 1.0 4.0 0.00 0.00 0.00 76 1015.1
20260903183850 89 142 1.0 4.0 0.00 0.00 0.00 76 1015.2
20260903183344 88 82 1.0 5.0 0.00 0.00 0.00 78 1015.2
20260903183109 88 31 2.0 5.0 0.00 0.00 0.00 78 1015.3
20260903182332 88 38 2.0 5.0 0.00 0.00 0.00 77 1015.3
20260903181826 88 332 2.0 6.0 0.00 0.00 0.00 77 1015.4
20260903181320 89 11 1.0 6.0 0.00 0.00 0.00 74 1015.4
20260903180826 90 0 0.0 5.0 0.00 0.00 0.00 74 1015.3
20260903180539 90 86 1.0 5.0 0.00 0.00 0.00 74 1015.4
20260903175801 91 183 1.0 4.0 0.00 0.00 0.00 76 1015.4
20260903175256 91 62 1.0 4.0 0.00 0.00 0.00 70 1015.4
20260903174750 92 165 1.0 4.0 0.00 0.00 0.00 73 1015.5
20260903174243 90 171 2.0 6.0 0.00 0.00 0.00 74 1015.5
20260903173738 90 248 2.0 9.0 0.00 0.00 0.00 74 1015.6
20260903173503 91 179 3.0 9.0 0.00 0.00 0.00 72 1015.7
20260903172726 92 125 2.0 8.0 0.00 0.00 0.00 72 1015.6
20260903172220 91 190 2.0 5.0 0.00 0.00 0.00 76 1015.7
20260903171727 90 163 2.0 5.0 0.00 0.00 0.00 75 1015.6
20260903171207 90 191 2.0 6.0 0.00 0.00 0.00 75 1015.7